sat.trackr.live / text

‹ back to catalog

STARLINK-1494

NORAD 45760 · 2020-038AG

PAYLOAD ACTIVE UNKNOWN

§ Identity

Operator
Country
US
Launch date
2020-06-13
Launch site
AFETR
Launch vehicle
Mass (kg)
RCS (m²)

Purposes: comms

External: N2YO · Heavens-Above · Gunter

§ Orbital elements

Epoch: 2026-05-25T06:00:02.000160Z

Period
90.13 min
Inclination
53.0382°
Eccentricity
0.0005147
Mean motion
15.97739617 rev/d
Perigee alt
277.3 km
Apogee alt
284.1 km
Semi-major
6,658.8 km
B*
6.5275e-4
RAAN
125.1115°
Arg perigee
39.6042°
Mean anomaly
134.7337°
Rev number
602

§ Raw data

STARLINK-14941 45760U 20038AG  26145.25002315  .00299132  47530-4  65275-3 0  99982 45760  53.0382 125.1115 0005147  39.6042 134.7337 15.97739617  6023

JSON: /api/v1/satellites/45760 · /tle

For live sub-satellite position, see the globe view (requires WebGL).

§ Visibility from observer

Set your observer location to see the next 7 days of passes ≥ 10°. The values pass through the URL so the page stays shareable.

No JS? Fill the form by hand. The geolocation button needs JavaScript.